Time,TemperatureF,DewpointF,PressureIn,WindDirection,WindDirectionDegrees,WindSpeedMPH,WindSpeedGustMPH,Humidity,HourlyPrecipIn,Conditions,Clouds,dailyrainin,SoftwareType,DateUTC
2013-04-08 00:12:00,45.6,40.0,29.98,SSW,205,2.0,-999.0,80,-99.99,,,0.00,weatherlink.com 1.10,2013-04-08 04:12:00,
2013-04-08 00:27:00,45.4,40.0,29.98,SSW,194,0.0,-999.0,81,-99.99,,,0.00,weatherlink.com 1.10,2013-04-08 04:27:00,
2013-04-08 00:42:00,45.2,40.0,29.98,SSW,212,0.0,-999.0,82,-99.99,,,0.00,weatherlink.com 1.10,2013-04-08 04:42:00,
2013-04-08 00:57:00,45.0,40.0,29.97,SSW,205,1.0,-999.0,83,-99.99,,,0.00,weatherlink.com 1.10,2013-04-08 04:57:00,
2013-04-08 01:12:00,44.9,40.0,29.97,South,188,0.0,-999.0,83,-99.99,,,0.00,weatherlink.com 1.10,2013-04-08 05:12:00,
2013-04-08 01:27:00,44.7,40.0,29.96,SSW,198,0.0,-999.0,84,-99.99,,,0.00,weatherlink.com 1.10,2013-04-08 05:27:00,
2013-04-08 01:42:00,44.6,40.0,29.96,SSW,201,0.0,-999.0,85,-99.99,,,0.00,weatherlink.com 1.10,2013-04-08 05:42:00,
2013-04-08 01:57:00,44.3,40.0,29.96,SSW,200,0.0,-999.0,86,-99.99,,,0.00,weatherlink.com 1.10,2013-04-08 05:57:00,
2013-04-08 02:12:00,43.8,40.0,29.96,SSW,200,1.0,-999.0,87,-99.99,,,0.00,weatherlink.com 1.10,2013-04-08 06:12:00,
2013-04-08 02:27:00,43.7,41.0,29.95,SSW,212,0.0,-999.0,89,-99.99,,,0.00,weatherlink.com 1.10,2013-04-08 06:27:00,
2013-04-08 02:42:00,43.6,41.0,29.95,SSW,212,0.0,-999.0,89,-99.99,,,0.00,weatherlink.com 1.10,2013-04-08 06:42:00,
2013-04-08 02:57:00,43.7,41.0,29.94,SSW,211,1.0,-999.0,90,-99.99,,,0.00,weatherlink.com 1.10,2013-04-08 06:57:00,
2013-04-08 03:13:00,43.7,41.0,29.93,SW,234,0.0,-999.0,89,-99.99,,,0.00,weatherlink.com 1.10,2013-04-08 07:13:00,
2013-04-08 03:28:00,43.8,41.0,29.93,SSW,213,0.0,-999.0,90,-99.99,,,0.00,weatherlink.com 1.10,2013-04-08 07:28:00,
2013-04-08 03:43:00,43.3,41.0,29.93,SW,223,0.0,-999.0,90,-99.99,,,0.00,weatherlink.com 1.10,2013-04-08 07:43:00,
2013-04-08 03:58:00,42.7,40.0,29.94,SW,223,0.0,-999.0,91,-99.99,,,0.00,weatherlink.com 1.10,2013-04-08 07:58:00,
2013-04-08 04:13:00,42.8,41.0,29.94,SW,220,0.0,-999.0,92,-99.99,,,0.00,weatherlink.com 1.10,2013-04-08 08:13:00,
2013-04-08 04:28:00,42.9,41.0,29.94,SW,221,0.0,-999.0,92,-99.99,,,0.00,weatherlink.com 1.10,2013-04-08 08:28:00,
2013-04-08 04:43:00,43.5,41.0,29.94,SW,236,0.0,-999.0,92,-99.99,,,0.00,weatherlink.com 1.10,2013-04-08 08:43:00,
2013-04-08 04:58:00,43.9,42.0,29.94,SW,214,1.0,-999.0,91,-99.99,,,0.00,weatherlink.com 1.10,2013-04-08 08:58:00,
2013-04-08 05:13:00,43.8,41.0,29.94,SW,236,0.0,-999.0,91,-99.99,,,0.00,weatherlink.com 1.10,2013-04-08 09:13:00,
2013-04-08 05:28:00,43.6,41.0,29.95,WSW,242,0.0,-999.0,91,-99.99,,,0.00,weatherlink.com 1.10,2013-04-08 09:28:00,
2013-04-08 05:43:00,42.9,41.0,29.95,WSW,242,0.0,-999.0,91,-99.99,,,0.00,weatherlink.com 1.10,2013-04-08 09:43:00,
2013-04-08 05:58:00,42.1,40.0,29.95,WSW,242,0.0,-999.0,92,-99.99,,,0.00,weatherlink.com 1.10,2013-04-08 09:58:00,
2013-04-08 06:13:00,41.3,40.0,29.95,WSW,242,0.0,-999.0,93,-99.99,,,0.00,weatherlink.com 1.10,2013-04-08 10:13:00,
2013-04-08 06:28:00,41.3,40.0,29.96,WSW,242,0.0,-999.0,94,-99.99,,,0.00,weatherlink.com 1.10,2013-04-08 10:28:00,
2013-04-08 06:43:00,41.0,39.0,29.96,WSW,242,0.0,-999.0,94,-99.99,,,0.00,weatherlink.com 1.10,2013-04-08 10:43:00,
2013-04-08 06:58:00,41.1,40.0,29.97,WSW,242,0.0,-999.0,95,-99.99,,,0.00,weatherlink.com 1.10,2013-04-08 10:58:00,
2013-04-08 07:13:00,41.7,41.0,29.98,WSW,242,0.0,-999.0,96,-99.99,,,0.00,weatherlink.com 1.10,2013-04-08 11:13:00,
2013-04-08 07:28:00,42.4,41.0,29.98,WSW,242,0.0,-999.0,96,-99.99,,,0.00,weatherlink.com 1.10,2013-04-08 11:28:00,
2013-04-08 07:43:00,43.2,42.0,29.99,WSW,242,0.0,-999.0,95,-99.99,,,0.00,weatherlink.com 1.10,2013-04-08 11:43:00,
2013-04-08 07:58:00,43.9,42.0,29.99,WSW,242,0.0,-999.0,93,-99.99,,,0.00,weatherlink.com 1.10,2013-04-08 11:58:00,
2013-04-08 08:13:00,44.9,42.0,29.99,WSW,242,0.0,-999.0,90,-99.99,,,0.00,weatherlink.com 1.10,2013-04-08 12:13:00,
2013-04-08 08:28:00,45.8,43.0,29.99,WSW,242,0.0,-999.0,88,-99.99,,,0.00,weatherlink.com 1.10,2013-04-08 12:28:00,
2013-04-08 08:43:00,46.7,43.0,30.00,WSW,241,0.0,-999.0,86,-99.99,,,0.00,weatherlink.com 1.10,2013-04-08 12:43:00,
2013-04-08 08:58:00,47.9,41.0,30.00,WSW,239,2.0,-999.0,78,-99.99,,,0.00,weatherlink.com 1.10,2013-04-08 12:58:00,
2013-04-08 09:13:00,51.1,41.0,29.99,NE,48,0.0,-999.0,69,-99.99,,,0.00,weatherlink.com 1.10,2013-04-08 13:13:00,
2013-04-08 09:28:00,51.6,40.0,29.99,SW,219,2.0,-999.0,65,-99.99,,,0.00,weatherlink.com 1.10,2013-04-08 13:28:00,
2013-04-08 09:43:00,51.7,39.0,30.00,NNE,32,2.0,-999.0,63,-99.99,,,0.00,weatherlink.com 1.10,2013-04-08 13:43:00,
2013-04-08 10:29:00,52.7,39.0,30.02,NE,49,1.0,-999.0,59,-99.99,,,0.00,weatherlink.com 1.10,2013-04-08 14:29:00,
2013-04-08 10:43:00,52.8,38.0,30.03,West,262,0.0,-999.0,57,-99.99,,,0.00,weatherlink.com 1.10,2013-04-08 14:43:00,
2013-04-08 10:59:00,53.7,38.0,30.04,SW,236,4.0,-999.0,55,-99.99,,,0.00,weatherlink.com 1.10,2013-04-08 14:59:00,
2013-04-08 11:29:00,55.1,37.0,30.04,ENE,62,2.0,-999.0,51,-99.99,,,0.00,weatherlink.com 1.10,2013-04-08 15:29:00,
2013-04-08 11:44:00,55.6,38.0,30.04,West,279,3.0,-999.0,51,-99.99,,,0.00,weatherlink.com 1.10,2013-04-08 15:44:00,
2013-04-08 11:59:00,57.2,37.0,30.05,NW,304,0.0,-999.0,48,-99.99,,,0.00,weatherlink.com 1.10,2013-04-08 15:59:00,
2013-04-08 12:14:00,57.3,38.0,30.04,WSW,246,0.0,-999.0,49,-99.99,,,0.00,weatherlink.com 1.10,2013-04-08 16:14:00,
2013-04-08 12:44:00,59.1,37.0,30.04,WSW,237,4.0,-999.0,44,-99.99,,,0.00,weatherlink.com 1.10,2013-04-08 16:44:00,
2013-04-08 12:59:00,59.0,37.0,30.03,North,5,4.0,-999.0,44,-99.99,,,0.00,weatherlink.com 1.10,2013-04-08 16:59:00,
2013-04-08 13:29:00,59.6,37.0,30.04,NE,49,0.0,-999.0,43,-99.99,,,0.00,weatherlink.com 1.10,2013-04-08 17:29:00,
2013-04-08 13:44:00,61.5,37.0,30.04,NNE,30,1.0,-999.0,40,-99.99,,,0.00,weatherlink.com 1.10,2013-04-08 17:44:00,
2013-04-08 13:59:00,61.8,38.0,30.03,SSW,207,0.0,-999.0,41,-99.99,,,0.00,weatherlink.com 1.10,2013-04-08 17:59:00,
2013-04-08 14:14:00,63.3,37.0,30.03,North,5,0.0,-999.0,38,-99.99,,,0.00,weatherlink.com 1.10,2013-04-08 18:14:00,
2013-04-08 14:29:00,63.8,37.0,30.02,West,259,0.0,-999.0,37,-99.99,,,0.00,weatherlink.com 1.10,2013-04-08 18:29:00,
2013-04-08 14:44:00,64.8,36.0,30.02,NW,307,0.0,-999.0,35,-99.99,,,0.00,weatherlink.com 1.10,2013-04-08 18:44:00,
2013-04-08 14:59:00,64.4,37.0,30.02,WNW,286,3.0,-999.0,37,-99.99,,,0.00,weatherlink.com 1.10,2013-04-08 18:59:00,
2013-04-08 15:14:00,65.9,37.0,30.02,South,189,1.0,-999.0,35,-99.99,,,0.00,weatherlink.com 1.10,2013-04-08 19:14:00,
2013-04-08 15:29:00,64.1,36.0,30.01,East,80,0.0,-999.0,35,-99.99,,,0.00,weatherlink.com 1.10,2013-04-08 19:29:00,
2013-04-08 15:44:00,64.1,35.0,30.01,NE,53,1.0,-999.0,34,-99.99,,,0.00,weatherlink.com 1.10,2013-04-08 19:44:00,
2013-04-08 15:59:00,65.5,35.0,30.00,ENE,65,0.0,-999.0,32,-99.99,,,0.00,weatherlink.com 1.10,2013-04-08 19:59:00,
2013-04-08 16:14:00,64.8,34.0,30.00,NE,51,0.0,-999.0,32,-99.99,,,0.00,weatherlink.com 1.10,2013-04-08 20:14:00,
2013-04-08 16:29:00,64.4,34.0,30.00,ENE,61,1.0,-999.0,32,-99.99,,,0.00,weatherlink.com 1.10,2013-04-08 20:29:00,
2013-04-08 16:44:00,64.6,34.0,30.01,ENE,62,1.0,-999.0,32,-99.99,,,0.00,weatherlink.com 1.10,2013-04-08 20:44:00,
2013-04-08 16:59:00,66.0,34.0,30.00,WSW,257,0.0,-999.0,31,-99.99,,,0.00,weatherlink.com 1.10,2013-04-08 20:59:00,
2013-04-08 17:14:00,67.2,35.0,30.01,SSW,212,2.0,-999.0,30,-99.99,,,0.00,weatherlink.com 1.10,2013-04-08 21:14:00,
2013-04-08 17:44:00,65.0,34.0,30.00,NW,309,3.0,-999.0,31,-99.99,,,0.00,weatherlink.com 1.10,2013-04-08 21:44:00,
2013-04-08 17:59:00,64.5,34.0,30.00,NW,317,0.0,-999.0,32,-99.99,,,0.00,weatherlink.com 1.10,2013-04-08 21:59:00,
2013-04-08 18:14:00,64.1,34.0,30.01,NW,321,0.0,-999.0,33,-99.99,,,0.00,weatherlink.com 1.10,2013-04-08 22:14:00,
2013-04-08 18:29:00,63.6,35.0,30.02,NW,321,0.0,-999.0,34,-99.99,,,0.00,weatherlink.com 1.10,2013-04-08 22:29:00,
2013-04-08 18:44:00,62.1,35.0,30.02,NW,321,0.0,-999.0,36,-99.99,,,0.00,weatherlink.com 1.10,2013-04-08 22:44:00,
2013-04-08 18:59:00,59.8,35.0,30.02,NW,321,0.0,-999.0,39,-99.99,,,0.00,weatherlink.com 1.10,2013-04-08 22:59:00,
2013-04-08 19:14:00,58.2,38.0,30.03,East,100,0.0,-999.0,48,-99.99,,,0.00,weatherlink.com 1.10,2013-04-08 23:14:00,
2013-04-08 19:29:00,56.2,39.0,30.05,SSE,153,1.0,-999.0,52,-99.99,,,0.00,weatherlink.com 1.10,2013-04-08 23:29:00,
2013-04-08 19:44:00,54.6,38.0,30.05,SE,130,0.0,-999.0,54,-99.99,,,0.00,weatherlink.com 1.10,2013-04-08 23:44:00,
2013-04-08 19:59:00,53.5,37.0,30.05,ESE,122,0.0,-999.0,55,-99.99,,,0.00,weatherlink.com 1.10,2013-04-08 23:59:00,
2013-04-08 20:14:00,52.7,38.0,30.05,ESE,122,0.0,-999.0,57,-99.99,,,0.00,weatherlink.com 1.10,2013-04-09 00:14:00,
2013-04-08 20:29:00,51.9,38.0,30.05,ESE,122,0.0,-999.0,59,-99.99,,,0.00,weatherlink.com 1.10,2013-04-09 00:29:00,
2013-04-08 20:44:00,51.3,38.0,30.06,ESE,122,0.0,-999.0,60,-99.99,,,0.00,weatherlink.com 1.10,2013-04-09 00:44:00,
2013-04-08 20:59:00,50.7,38.0,30.07,ESE,122,0.0,-999.0,61,-99.99,,,0.00,weatherlink.com 1.10,2013-04-09 00:59:00,
2013-04-08 21:14:00,50.0,38.0,30.08,ESE,122,0.0,-999.0,63,-99.99,,,0.00,weatherlink.com 1.10,2013-04-09 01:14:00,
2013-04-08 21:29:00,49.3,38.0,30.07,ESE,122,0.0,-999.0,65,-99.99,,,0.00,weatherlink.com 1.10,2013-04-09 01:29:00,
2013-04-08 21:44:00,48.8,38.0,30.07,ESE,122,0.0,-999.0,66,-99.99,,,0.00,weatherlink.com 1.10,2013-04-09 01:44:00,
2013-04-08 22:00:00,48.7,38.0,30.06,ESE,122,0.0,-999.0,67,-99.99,,,0.00,weatherlink.com 1.10,2013-04-09 02:00:00,
2013-04-08 22:15:00,48.7,39.0,30.07,ESE,122,0.0,-999.0,68,-99.99,,,0.00,weatherlink.com 1.10,2013-04-09 02:15:00,
2013-04-08 22:30:00,48.8,39.0,30.07,ESE,122,0.0,-999.0,68,-99.99,,,0.00,weatherlink.com 1.10,2013-04-09 02:30:00,
2013-04-08 22:45:00,48.6,38.0,30.07,ESE,122,0.0,-999.0,68,-99.99,,,0.00,weatherlink.com 1.10,2013-04-09 02:45:00,
2013-04-08 23:00:00,48.3,39.0,30.06,ESE,122,0.0,-999.0,70,-99.99,,,0.00,weatherlink.com 1.10,2013-04-09 03:00:00,
2013-04-08 23:15:00,48.3,39.0,30.06,ESE,122,0.0,-999.0,70,-99.99,,,0.00,weatherlink.com 1.10,2013-04-09 03:15:00,
2013-04-08 23:45:00,48.3,39.0,30.06,ESE,122,0.0,-999.0,71,-99.99,,,0.00,weatherlink.com 1.10,2013-04-09 03:45:00,